Chehalis, WA
on Thursday, November 29, 2012

Thursday
Previous Day Next Day
Daily Summary
 ActualAverage (KOLM)Record (KOLM)
Temperature
Mean Temperature °F 40°F  
Max Temperature 55°F 47°F 56°F (1953)
Min Temperature 39°F 34°F 14°F (1975)
Degree Days
Heating Degree Days 18 25  
Month to date heating degree days 626  
Since 1 July heating degree days 1420  
Cooling Degree Days 0 0  
Month to date cooling degree days 0  
Year to date cooling degree days 106  
Moisture
Dew Point 44°F   
Average Humidity 86    
Maximum Humidity 100    
Minimum Humidity 72    
Precipitation
Precipitation 0.21 in 0.30 in 2.37 in (1995)
Month to date precipitation 8.33  
Year to date precipitation 42.24  
Wind
Wind Speed 5 mph   
Max Wind Speed 18 mph   
Max Gust Speed 25 mph   
Visibility 7 miles   
Events Rain   

Key: T is trace of precipitation, MM is missing value
Source: NWS Daily Summary
Time(PST)TemperatureDew PointHumidity Pressure Visibility Wind DirectionWind SpeedGust SpeedPrecipitationEvents Conditions
12:15 AM 41.0°F 39.2°F 93% 29.70 in 7.0 miles SW 3.5 mph - N/A   Mostly Cloudy
12:35 AM 39.2°F 39.2°F 100% 29.69 in 9.0 miles Calm Calm - N/A   Overcast
12:55 AM 39.2°F 39.2°F 100% 29.68 in 5.0 miles Calm Calm - N/A   Overcast
1:15 AM 39.2°F 39.2°F 100% 29.68 in 5.0 miles Calm Calm - N/A   Mostly Cloudy
1:35 AM 39.2°F 39.2°F 100% 29.68 in 8.0 miles Calm Calm - N/A   Mostly Cloudy
1:55 AM 39.2°F 39.2°F 100% 29.67 in 7.0 miles Calm Calm - N/A   Overcast
2:15 AM 39.2°F 39.2°F 100% 29.67 in 4.0 miles Calm Calm - N/A   Overcast
2:35 AM 39.2°F 39.2°F 100% 29.67 in 5.0 miles Calm Calm - N/A   Overcast
2:55 AM 41.0°F 39.2°F 93% 29.66 in 5.0 miles Calm Calm - N/A   Overcast
3:15 AM 41.0°F 39.2°F 93% 29.64 in 5.0 miles NE 4.6 mph - N/A   Overcast
3:35 AM 41.0°F 39.2°F 93% 29.63 in 6.0 miles Calm Calm - N/A   Mostly Cloudy
3:55 AM 41.0°F 39.2°F 93% 29.62 in 5.0 miles Calm Calm - N/A   Mostly Cloudy
4:15 AM 41.0°F 41.0°F 100% 29.60 in 5.0 miles Calm Calm - N/A   Mostly Cloudy
4:35 AM 41.0°F 41.0°F 100% 29.59 in 5.0 miles Calm Calm - N/A   Overcast
4:55 AM 41.0°F 39.2°F 93% 29.58 in 5.0 miles SW 3.5 mph - N/A Rain Light Rain
5:15 AM 41.0°F 41.0°F 100% 29.57 in 5.0 miles Calm Calm - N/A Rain Light Rain
5:35 AM 41.0°F 41.0°F 100% 29.56 in 7.0 miles WSW 4.6 mph - 0.01 in Rain Light Rain
5:55 AM 41.0°F 41.0°F 100% 29.56 in 9.0 miles WSW 5.8 mph - 0.01 in   Overcast
6:15 AM 42.8°F 41.0°F 93% 29.55 in 8.0 miles South 4.6 mph - N/A Rain Light Rain
6:35 AM 42.8°F 41.0°F 93% 29.55 in 9.0 miles SW 3.5 mph - N/A Rain Light Rain
6:55 AM 44.6°F 41.0°F 87% 29.54 in 9.0 miles South 3.5 mph - 0.01 in Rain Light Rain
7:15 AM 44.6°F 41.0°F 87% 29.54 in 6.0 miles South 8.1 mph - N/A   Overcast
7:35 AM 46.4°F 41.0°F 81% 29.55 in 7.0 miles South 8.1 mph - N/A   Overcast
7:55 AM 46.4°F 41.0°F 81% 29.56 in 5.0 miles SSW 5.8 mph - N/A   Overcast
8:15 AM 44.6°F 42.8°F 93% 29.59 in 4.0 miles WSW 3.5 mph - 0.01 in Rain Light Rain
8:35 AM 44.6°F 42.8°F 93% 29.59 in 3.0 miles SSE 3.5 mph - 0.05 in Rain Light Rain
8:55 AM 44.6°F 44.6°F 100% 29.59 in 3.0 miles SSE 4.6 mph - 0.07 in Rain Light Rain
9:15 AM 46.4°F 44.6°F 93% 29.60 in 6.0 miles South 10.4 mph 16.1 mph N/A   Overcast
9:35 AM 46.4°F 44.6°F 93% 29.60 in 10.0 miles South 9.2 mph - N/A   Overcast
9:55 AM 46.4°F 44.6°F 93% 29.62 in 9.0 miles South 9.2 mph - N/A   Mostly Cloudy
10:15 AM 48.2°F 44.6°F 87% 29.62 in 10.0 miles South 9.2 mph - N/A   Mostly Cloudy
10:35 AM 48.2°F 44.6°F 87% 29.62 in 9.0 miles South 10.4 mph - N/A   Scattered Clouds
10:55 AM 50.0°F 46.4°F 87% 29.62 in 5.0 miles South 11.5 mph 19.6 mph N/A   Mostly Cloudy
11:15 AM 50.0°F 46.4°F 87% 29.63 in 5.0 miles South 15.0 mph 19.6 mph N/A   Haze
11:35 AM 50.0°F 46.4°F 87% 29.62 in 5.0 miles South 13.8 mph 18.4 mph N/A   Haze
11:55 AM 51.8°F 46.4°F 82% 29.62 in 5.0 miles South 12.7 mph 21.9 mph N/A   Haze
12:15 PM 53.6°F 46.4°F 77% 29.61 in 5.0 miles South 15.0 mph 24.2 mph N/A   Haze
12:35 PM 53.6°F 46.4°F 77% 29.61 in 5.0 miles South 11.5 mph 19.6 mph N/A   Haze
12:55 PM 53.6°F 46.4°F 77% 29.60 in 10.0 miles South 15.0 mph 25.3 mph N/A   Overcast
1:15 PM 53.6°F 46.4°F 77% 29.59 in 7.0 miles South 16.1 mph 25.3 mph N/A   Overcast
1:35 PM 53.6°F 46.4°F 77% 29.59 in 5.0 miles South 18.4 mph 24.2 mph N/A   Haze
1:55 PM 55.4°F 46.4°F 72% 29.58 in 5.0 miles South 16.1 mph 20.7 mph N/A   Haze
2:15 PM 55.4°F 46.4°F 72% 29.58 in 5.0 miles South 11.5 mph 20.7 mph N/A   Haze
2:35 PM 55.4°F 46.4°F 72% 29.58 in 6.0 miles South 12.7 mph 20.7 mph N/A   Haze
3:15 PM 55.4°F 46.4°F 72% 29.57 in 10.0 miles South 12.7 mph 20.7 mph N/A   Overcast
3:35 PM 53.6°F 44.6°F 72% 29.57 in 10.0 miles South 11.5 mph 17.3 mph N/A   Overcast
3:55 PM 53.6°F 44.6°F 72% 29.56 in 10.0 miles South 12.7 mph 18.4 mph N/A   Overcast
4:15 PM 53.6°F 44.6°F 72% 29.55 in 10.0 miles South 11.5 mph - N/A   Mostly Cloudy
4:35 PM 53.6°F 44.6°F 72% 29.54 in 10.0 miles South 9.2 mph - N/A   Scattered Clouds
4:55 PM 53.6°F 44.6°F 72% 29.54 in 10.0 miles South 9.2 mph - N/A   Mostly Cloudy
5:15 PM 53.6°F 44.6°F 72% 29.54 in 10.0 miles South 10.4 mph 18.4 mph N/A   Overcast
5:35 PM 53.6°F 44.6°F 72% 29.54 in 10.0 miles South 17.3 mph 24.2 mph N/A   Mostly Cloudy
5:55 PM 53.6°F 44.6°F 72% 29.54 in 8.0 miles South 15.0 mph 24.2 mph N/A   Mostly Cloudy
6:15 PM 53.6°F 44.6°F 72% 29.54 in 10.0 miles South 13.8 mph 19.6 mph N/A   Overcast
6:35 PM 51.8°F 44.6°F 76% 29.53 in 10.0 miles South 11.5 mph 20.7 mph N/A   Mostly Cloudy
6:55 PM 50.0°F 44.6°F 82% 29.52 in 10.0 miles South 10.4 mph - N/A   Scattered Clouds
7:15 PM 50.0°F 44.6°F 82% 29.51 in 10.0 miles South 10.4 mph - N/A   Mostly Cloudy
7:35 PM 50.0°F 44.6°F 82% 29.50 in 10.0 miles South 6.9 mph - N/A   Mostly Cloudy
8:15 PM 50.0°F 46.4°F 87% 29.51 in 10.0 miles SSW 6.9 mph - N/A   Overcast
8:35 PM 50.0°F 46.4°F 87% 29.51 in 10.0 miles South 9.2 mph - N/A   Overcast
8:55 PM 50.0°F 46.4°F 87% 29.50 in 10.0 miles South 8.1 mph - N/A   Mostly Cloudy
9:15 PM 50.0°F 44.6°F 82% 29.50 in 10.0 miles South 8.1 mph - N/A   Mostly Cloudy
9:35 PM 50.0°F 44.6°F 82% 29.48 in 10.0 miles South 6.9 mph - N/A   Mostly Cloudy
9:55 PM 50.0°F 44.6°F 82% 29.48 in 10.0 miles South 8.1 mph - N/A   Mostly Cloudy
10:15 PM 50.0°F 44.6°F 82% 29.48 in 10.0 miles South 6.9 mph - N/A   Overcast
10:35 PM 50.0°F 46.4°F 87% 29.48 in 6.0 miles South 6.9 mph - N/A Rain Light Rain
10:55 PM 48.2°F 46.4°F 93% 29.47 in 6.0 miles South 4.6 mph - 0.02 in Rain Light Rain
11:15 PM 48.2°F 46.4°F 93% 29.47 in 5.0 miles SSW 4.6 mph - 0.04 in Rain Rain
11:35 PM 48.2°F 46.4°F 93% 29.46 in 5.0 miles SSE 5.8 mph - 0.08 in Rain Light Rain
11:55 PM 48.2°F 46.4°F 93% 29.46 in 5.0 miles South 4.6 mph - 0.10 in   Overcast
Moon Phase
Nov. 29 Dec. 06 Dec. 13 Dec. 20 Dec. 28
Sunrise:07:34 AM (PST) Moon Rise:05:33 PM (PST)11/29
Sunset:04:26 PM (PST) Moon Set:08:25 AM (PST)11/29

Copyright © 2014 The Weather Underground, Inc.